Weather observations for the past three days for
Marshall
Metric (Imperial)
Date Time (akdt) Wind (kph) Vis. (km) Weather Sky Cond. Temperature (ºC) Relative Humidity Wind Chill (°C) Heat Index (°C) Pressure Precipitation (cm)
Air Dwpt 6 hour altimeter (cm) sea level (mb) 1 hr 3 hr 6 hr
Max. Min.
21 09:56 Calm 16.09 Overcast OVC090 14.4 10 14.4 8.9 75% 76.2 1016.4
21 08:56 Calm 16.09 Fair CLR 13.3 11.7 90% 76.2 1016.3
21 07:56 Calm 16.09 Fair CLR 10 10 100% 76.17 1016.1
21 06:56 E 6 16.09 Fair CLR 9.4 8.9 97% 76.17 1016.0
21 05:56 E 9 16.09 Overcast OVC095 9.4 8.9 97% 8 76.17 1016.0
21 04:56 E 6 14.48 Overcast FEW055 OVC100 9.4 9.4 100% 76.17 1016.1
21 03:56 E 6 16.09 Overcast BKN075 OVC100 9.4 8.9 16.1 8.9 97% 76.2 1016.3 0.1
21 02:56 Calm 16.09 Overcast FEW055 OVC100 10.6 10 96% 76.17 1016.0 0.03
21 01:56 Calm 16.09 Overcast OVC065 12.2 10.6 90% 76.1 1015.0
21 00:56 Calm 16.09 Overcast OVC070 12.8 10.6 87% 76.12 1015.4 0.08
20 23:56 NE 9 16.09 Light Rain BKN060 OVC070 12.2 11.1 93% 76.15 1015.5 0.08
20 22:56 E 19 16.09 Light Rain OVC070 14.4 10 75% 76.1 1015.0
20 21:56 SW 13 16.09 Overcast BKN065 OVC095 16.7 9.4 20 16.7 62% 76.07 1014.6
20 20:56 NW 17 16.09 Overcast SCT075 OVC100 19.4 6.7 44% 76.05 1014.4
20 19:56 NW 13 16.09 Fair CLR 20 7.2 44% 76.05 1014.4
20 18:56 NW 15 16.09 Fair CLR 19.4 7.8 47% 76.07 1014.5
20 17:56 W 19 16.09 Fair CLR 19.4 7.8 47% 76.07 1014.7
20 16:56 W 15 16.09 Fair CLR 19.4 7.8 47% 76.1 1015.0
20 15:56 W 19 14.48 Fair CLR 18.9 8.3 18.9 13.3 50% 76.15 1015.6
20 14:56 NW 17 16.09 A Few Clouds FEW044 18.3 8.3 52% 76.17 1015.9
20 13:56 NW 19 16.09 Mostly Cloudy BKN043 BKN050 17.2 7.8 54% 76.2 1016.4
20 12:56 NW 17 16.09 Mostly Cloudy BKN041 BKN055 16.7 7.8 56% 76.23 1016.6
20 11:56 NW 13 16.09 A Few Clouds FEW032 16.1 9.4 65% 76.23 1016.8
20 10:56 Vrbl 6 16.09 Fair CLR 14.4 9.4 72% 76.33 1018.0
20 09:56 Calm 16.09 Fair CLR 13.3 9.4 13.3 6.7 77% 76.35 1018.3
20 08:56 Calm 16.09 Overcast OVC090 10.6 8.9 89% 76.35 1018.4
20 07:56 NE 6 16.09 Overcast BKN060 OVC100 9.4 7.8 90% 76.28 1017.6
20 06:56 E 7 16.09 Mostly Cloudy BKN090 BKN120 7.2 6.7 97% 6 76.35 1018.4
20 05:56 E 7 16.09 Overcast OVC080 7.2 6.1 93% 6 76.35 1018.3
20 04:56 E 11 16.09 Overcast SCT070 OVC110 7.2 6.7 97% 5 76.33 1018.2
20 03:56 E 7 16.09 Overcast BKN015 OVC100 8.3 7.2 14.4 8.3 93% 7 76.33 1018.1
20 02:56 NE 7 16.09 Overcast BKN015 OVC100 9.4 7.8 90% 9 76.33 1018.0
20 01:56 E 7 16.09 Overcast BKN049 OVC060 10 8.3 89% 9 76.33 1018.0
20 00:56 E 6 16.09 Overcast FEW046 SCT065 OVC090 11.7 8.3 80% 76.25 1016.9
19 23:56 SE 6 16.09 Overcast FEW045 OVC065 12.8 9.4 80% 76.28 1017.5
19 22:56 W 6 8.05 Overcast with Haze BKN043 OVC065 13.9 8.9 72% 76.25 1017.0
19 21:56 SW 13 14.48 Overcast SCT042 OVC060 14.4 7.8 16.1 14.4 65% 76.25 1016.9
19 20:56 Calm 16.09 Overcast FEW050 OVC060 15 6.7 58% 76.17 1015.8
19 19:56 E 13 16.09 Overcast OVC060 15 6.7 58% 76.23 1016.7
19 18:56 E 15 16.09 Overcast OVC044 15 7.2 60% 76.17 1016.0
19 17:56 SE 6 16.09 Overcast BKN041 OVC050 15 6.7 58% 76.17 1016.0
19 16:56 SE 15 16.09 Overcast OVC041 15 6.7 58% 76.17 1016.0
19 15:56 S 9 16.09 Overcast FEW036 BKN044 OVC120 15 6.7 15.6 11.7 58% 76.23 1016.8 0.03
19 14:56 S 13 16.09 Overcast SCT031 SCT041 OVC060 14.4 7.8 65% 76.15 1015.9
19 13:56 S 15 16.09 Overcast OVC030 13.3 7.8 70% 76.23 1016.7
19 12:56 S 6 16.09 Overcast FEW019 BKN027 OVC045 11.7 8.9 83% 76.2 1016.4 0.03 0.03
19 11:56 SE 15 16.09 Overcast FEW042 BKN050 OVC060 12.8 8.9 77% 76.17 1015.9
19 10:56 SE 9 16.09 Overcast SCT042 OVC049 12.2 8.9 80% 76.15 1015.8
19 09:56 SE 11 16.09 Overcast BKN042 OVC050 12.2 8.3 12.2 8.3 77% 76.15 1015.6 0.05
19 08:56 SE 13 16.09 Overcast OVC037 11.7 9.4 86% 76.12 1015.5
19 07:56 E 11 16.09 Overcast OVC043 10 9.4 96% 9 76.1 1015.0
19 06:56 E 9 16.09 Overcast OVC044 9.4 8.9 97% 8 76.1 1015.0 0.03 0.05
19 05:56 E 11 16.09 Light Rain SCT043 OVC050 8.9 8.3 96% 7 76.1 1015.0 0.03
19 04:56 E 7 16.09 Light Rain BKN047 OVC055 8.9 8.3 96% 8 76.07 1014.8
19 03:56 E 7 16.09 Light Rain BKN050 OVC055 8.9 8.3 12.8 8.3 96% 8 76.02 1013.8 0.15
19 02:56 E 9 16.09 Light Rain OVC050 8.9 8.3 96% 8 76.07 1014.6 0.03
19 01:56 Calm 16.09 Light Rain BKN048 OVC055 10 8.9 93% 76.07 1014.7 0.05
19 00:56 SW 7 16.09 Light Rain FEW010 BKN050 OVC065 10.6 10 96% 76.02 1013.8 0.03 0.08
18 23:56 S 17 16.09 Light Rain FEW060 OVC075 11.7 10 89% 76 1013.5 0.03
18 22:56 Calm 16.09 Light Rain OVC065 12.2 8.3 77% 76 1013.6 0.03
18 21:56 Calm 16.09 Light Rain OVC065 12.8 10.6 17.8 12.2 87% 76 1013.6 0.03 0.05
18 20:56 SW 6 16.09 Light Rain BKN070 OVC085 12.2 10 87% 76 1013.7
18 19:56 S 9 16.09 Light Rain OVC055 12.8 8.3 74% 75.97 1013.4 0.03
18 18:56 S 15 16.09 Light Rain OVC060 13.9 10 78% 75.95 1013.1
18 17:56 S 31 G 39 16.09 Light Rain OVC070 15.6 8.3 62% 75.92 1012.7
18 16:56 S 39 G 46 12.87 Overcast and Breezy BKN055 OVC080 17.2 8.3 56% 75.92 1012.5
18 15:56 SW 15 16.09 Overcast OVC055 17.8 7.8 18.9 15 52% 75.9 1012.3
18 14:56 SW 22 16.09 Light Rain SCT047 OVC055 17.2 8.3 56% 75.9 1012.4
18 13:56 SW 19 16.09 Mostly Cloudy BKN043 BKN055 18.3 8.3 52% 75.9 1012.3
18 12:56 SW 19 G 30 16.09 A Few Clouds FEW041 18.3 8.9 54% 75.9 1012.4
18 11:56 S 22 16.09 A Few Clouds FEW029 17.8 10 60% 75.9 1012.3
18 10:56 SW 15 16.09 Overcast OVC060 16.7 11.1 70% 75.92 1012.5
Date Time (akdt) Wind (kph) Vis. (km) Weather Sky Cond. Air Dwpt Max. Min. Relative Humidity Wind Chill (°C) Heat Index (°C) altimeter (cm) sea level (mb) 1 hr 3 hr 6 hr
6 hour
Temperature (ºC) Pressure Precipitation (cm)